Overview Statistics Trail Chart Weather Telemetry Raw packets
 

This is the latest recevied weather packets stored in our database for station/object KF0WJA. If no packets are shown the sender has not sent any weather packets the latest 10 day(s).

<< 66 67 68 69 70 71 72 >>
Time Temp. Humidity Pressure Rain* Wind** Luminosity Snow
1788199634 37.22° C 35% 1017.6 hPa 0 mm - 650 W/m² -
1788199329 37.22° C 36% 1017.8 hPa 0 mm - 644 W/m² -
1788199029 36.67° C 35% 1017.8 hPa 0 mm - 626 W/m² -
1788198726 36.67° C 35% 1017.6 hPa 0 mm - 661 W/m² -
1788198426 37.78° C 34% 1017.8 hPa 0 mm - 671 W/m² -
1788198121 36.67° C 38% 1017.6 hPa 0 mm - 687 W/m² -
1788197820 36.67° C 37% 1017.8 hPa 0 mm - 699 W/m² -
1788197515 36.11° C 38% 1017.9 hPa 0 mm - 697 W/m² -
1788197215 36.67° C 38% 1017.9 hPa 0 mm - 691 W/m² -
1788196911 36.11° C 39% 1018 hPa 0 mm - 685 W/m² -
1788196605 36.11° C 39% 1018.2 hPa 0 mm - 684 W/m² -
1788196303 36.11° C 38% 1018.2 hPa 0 mm - 678 W/m² -
1788195999 35° C 41% 1018.1 hPa 0 mm - 665 W/m² -
1788195695 35.56° C 40% 1018.1 hPa 0 mm - 669 W/m² -
1788195391 35° C 40% 1018.4 hPa 0 mm - 664 W/m² -
1788195087 35° C 40% 1018.5 hPa 0 mm - 662 W/m² -
1788194783 34.44° C 42% 1018.4 hPa 0 mm - 662 W/m² -
1788194479 35° C 41% 1018.5 hPa 0 mm - 675 W/m² -
1788194174 34.44° C 42% 1018.4 hPa 0 mm - 668 W/m² -
1788193869 34.44° C 42% 1018.5 hPa 0 mm - 633 W/m² -
1788193568 34.44° C 42% 1018.4 hPa 0 mm - 615 W/m² -
1788193266 34.44° C 42% 1018.7 hPa 0 mm - 632 W/m² -
1788192962 33.89° C 43% 1018.6 hPa 0 mm - 622 W/m² -
1788192659 33.89° C 43% 1018.6 hPa 0 mm - 634 W/m² -
1788192357 33.89° C 43% 1018.6 hPa 0 mm - 610 W/m² -

* Rain latest hour (hover to see other rain measurements)
** Current wind speed in m/s (hover to see current wind gust speed)